カタログに戻る

COSMOS 2251 DEB

運用中VLEO
NORAD 34036·DEBRIS·🇷🇺 Russia

打ち上げ Jun 16, 1993 から Plesetsk Cosmodrome

Loading…

次のパス (今後24時間)

TLE

最新Source: Space-Track

元期: Sep 14, 2026, 05:58 UTC

1 34036U 93036HX  26257.24924982  .00060248  00000-0  23381-2 0  9998
2 34036  73.9996 300.1060 0016414 296.4833  63.4683 15.25685221927276

AllMySatでCOSMOS 2251 DEBをリアルタイム追跡

Download on the App Store